This demonstration page uses our WeatherBlox Daily Observations layout. Learn more.

Left ArrowRight Arrow

30.21309, -93.2044

Hourly Observations for July 5, 2019

Temp ( °F °C ) Dew Point ( °F °C ) Humidity (%) Winds ( mph kmh ) Pressure ( in mb ) Visibility ( mi km ) Precip ( " mm )
12:15 am 00:15 Clear 77 25 76 24.6 98 98 SE 5 7 30.05 1018 10 16 0.00 0.00
12:35 am 00:35 Clear 77 25.2 76 24.7 97 97 ESE 7 11 30.05 1018 10 16 0.00 0.00
12:55 am 00:55 Clear 77 25 76 24.5 97 97 E 8 13 30.05 1018 7 11 0.00 0.00
1:15 am 01:15 Clear 76 24.7 76 24.3 98 98 ESE 6 9 30.06 1018 7 11 0.00 0.00
1:35 am 01:35 Clear 76 24.5 76 24.2 98 98 ESE 6 9 30.06 1018 7 11 0.00 0.00
1:55 am 01:55 Clear 76 24.3 75 24 98 98 ESE 6 9 30.06 1018 5 8 0.01 0.25
2:15 am 02:15 Clear 76 24.6 76 24.4 99 99 SSE 3 6 30.05 1018 10 16 0.00 0.00
2:35 am 02:35 Clear 76 24.4 75 24.1 98 98 Calm 30.05 1018 7 11 0.00 0.00
2:55 am 02:55 Clear 76 24.3 75 24.1 99 99 ESE 6 9 30.05 1018 7 11 0.00 0.00
3:15 am 03:15 Clear 76 24.5 75 24.1 98 98 ESE 5 7 30.05 1018 10 16 0.00 0.00
3:35 am 03:35 Clear 76 24.5 75 24.1 98 98 SE 3 6 30.05 1018 10 16 0.00 0.00
3:55 am 03:55 Clear 76 24.5 75 24.1 98 98 SE 3 6 30.05 1018 7 11 0.00 0.00
4:15 am 04:15 Clear 76 24.5 75 24.1 98 98 SE 3 6 30.04 1017 7 11 0.00 0.00
4:35 am 04:35 Clear 76 24.5 76 24.2 98 98 SE 5 7 30.04 1017 7 11 0.00 0.00
4:55 am 04:55 Clear 76 24.5 76 24.2 98 98 Calm 30.05 1018 10 16 0.00 0.00
5:15 am 05:15 Clear 76 24.3 75 24 98 98 Calm 30.05 1018 10 16 0.00 0.00
5:35 am 05:35 Clear 76 24.2 75 23.8 98 98 Calm 30.05 1018 10 16 0.00 0.00
6:00 am 06:00 Mostly Clear 75 24 75 24 100 100 Calm 30.06 1018 10 16 0.00 0.00
6:45 am 06:45 Mostly Sunny 77 25 75 24 94 94 Calm 30.07 1018 10 16 0.00 0.00
7:55 am 07:55 Mostly Sunny 82 28 77 25 84 84 SSW 5 7 30.09 1019 10 16 0.00 0.00
8:55 am 08:55 Mostly Sunny 84 29 75 24 74 74 SSW 9 15 30.10 1019 10 16 0.00 0.00
9:55 am 09:55 Mostly Sunny 86 30 75 24 70 70 SW 6 9 30.11 1020 10 16 0.00 0.00
10:50 am 10:50 Mostly Sunny 88 31 75 24 66 66 Calm 30.11 1020 10 16 0.00 0.00
11:45 am 11:45 Mostly Sunny 90 32 73 23 59 59 WSW 5 7 30.12 1020 10 16 0.00 0.00
12:45 pm 12:45 Mostly Sunny 90 32 72 22 55 55 S 3 6 30.11 1020 10 16 0.00 0.00
1:45 pm 13:45 Mostly Sunny 91 33 72 22 52 52 S 6 9 30.10 1019 10 16 0.00 0.00
2:50 pm 14:50 Mostly Sunny 93 34 72 22 49 49 SSE 3 6 30.09 1019 10 16 0.00 0.00
3:45 pm 15:45 Mostly Sunny 93 34 73 23 53 53 SSE 3 6 30.08 1019 10 16 0.00 0.00
4:55 pm 16:55 Mostly Sunny 93 34 72 22 49 49 S 9 15 30.06 1018 10 16 0.00 0.00
6:50 pm 18:50 Mostly Sunny 88 31 72 22 59 59 S 7 11 30.05 1018 10 16 0.00 0.00
7:50 pm 19:50 Mostly Sunny 86 30 75 24 70 70 SW 6 9 30.06 1018 10 16 0.00 0.00
8:50 pm 20:50 Mostly Clear 82 28 75 24 79 79 SSW 3 6 30.07 1018 10 16 0.00 0.00
9:50 pm 21:50 Mostly Clear 82 28 75 24 79 79 SW 5 7 30.07 1018 10 16 0.00 0.00
10:15 pm 22:15 Clear 78 25.7 75 23.7 89 89 E 8 13 30.08 1019 10 16 0.00 0.00
10:35 pm 22:35 Clear 78 25.6 75 24 91 91 E 7 11 30.09 1019 10 16 0.00 0.00
10:55 pm 22:55 Clear 76 24.7 75 23.8 95 95 E 8 13 30.09 1019 10 16 0.00 0.00
11:15 pm 23:15 Clear 76 24.6 75 23.8 95 95 E 8 13 30.09 1019 10 16 0.00 0.00
11:35 pm 23:35 Clear 76 24.5 75 23.8 96 96 E 7 11 30.09 1019 10 16 0.00 0.00
11:55 pm 23:55 Clear 76 24.5 75 23.8 96 96 E 6 9 30.09 1019 10 16 0.00 0.00

Powered by AerisWeather